Search for airport 
image banner adimage banner ad
image banner ad

VICG - Chandigarh

Located in Chandigarh, India

ICAO - VICG, IATA - IXC

Data provided by Airmate  

General information

Coordinates: N30°40'24" E76°47'18"
Elevation is 1030 feet MSL.
 
Rated:
View ratings: [VIEW]


View others Airports in Chandigarh

Operational data

Open for public use
Current time UTC:
Current local time:
Weather
METAR: VICG 081530Z VRB02KT 6000 FEW030 SCT250 31/31 Q0999 NOSIG
TAF: TAF VICG 080330Z 0806/0818 16010KT 6000 SCT025 SCT100 TEMPO0810/0813 23010G20KT 5000 TSRA SCT025 FEW030TCU/CB BKN090
View NOTAMs / SUP AIP / TFR affecting this airport [VIEW]
Communications frequencies: [VIEW]

Runways:

RWY identifierQFULength (ft)Width (ft)SurfaceLDA (ft)
11114°9001168ASP
29294°9000148

Airport contact information

Address: Chandigarh India

Satellite view of VICG